Date String (YYYY-MM-DD hh:mm:ss) UTC,Instrument flags,absolute air pressure of the measurement (hPa),sample flow rate (lpm),inlet stack bypass flow (lpm),air temperature of the measurement (°C),ambient temperature measured by the external sensor (°C),aerosol sample conditioner tube jacket temperature (°C),OPC LED temperature (°C),internal box temperature (°C),relative humidity of the measurement (%),span deviation,mass concentration of particles derived from Lorenz-Mie calculation of OPC scattering (μg/m³),mass concentration of particles derived from Lorenz-Mie calculation of OPC scattering (μg/m³),mass concentration of particles derived from Lorenz-Mie calculation of OPC scattering (μg/m³)
DateTimeUTC,F1_M11,P_M11,Q1_M11,Q2_M11,T1_M11,T2_M11,T3_M11,T4_M11,T5_M11,U1_M11,ZSPAN_M11,X0_M11,X2_M11,X1_M11
2023-07-08 08:00:00,SystemResetWarning,0833.8,4.99,000.00,029.8,028.7,000.0,038.3,031.4,33.9,-002.2,0010.61,0006.58,0006.03
2023-07-08 08:01:00,SystemResetWarning,0833.8,5.01,000.00,029.8,028.7,000.0,038.3,031.4,33.7,-002.7,0010.43,0006.56,0006.03
2023-07-08 08:02:00,SystemResetWarning,0833.8,5.01,000.00,029.9,028.7,000.0,038.3,031.4,33.9,-002.5,0010.42,0006.51,0006.03
2023-07-08 08:03:00,SystemResetWarning,0834.0,4.99,000.00,029.9,027.5,000.0,038.2,031.4,34.7,-002.5,0011.13,0006.51,0006.02
2023-07-08 08:04:00,SystemResetWarning,0833.8,4.99,000.00,029.8,025.8,000.0,038.1,031.1,35.0,-003.0,0010.48,0006.51,0006.01
2023-07-08 08:05:00,SystemResetWarning,0833.7,5.03,000.00,029.8,025.4,000.0,038.1,030.9,35.3,-003.0,0010.41,0006.51,0006.00
2023-07-08 08:06:00,SystemResetWarning,0833.7,4.99,000.00,029.9,025.6,000.0,038.1,030.8,35.4,-002.9,0010.46,0006.53,0006.01
2023-07-08 08:07:00,SystemResetWarning,0833.8,5.01,000.00,030.2,026.0,000.0,038.1,031.0,34.9,-002.8,0010.51,0006.55,0006.01
2023-07-08 08:08:00,SystemResetWarning,0833.8,4.98,000.00,030.4,026.4,000.0,038.2,031.1,34.2,-002.7,0010.51,0006.53,0005.99
2023-07-08 08:09:00,SystemResetWarning,0833.8,5.00,000.00,030.6,026.8,000.0,038.2,031.2,33.9,-002.4,0010.47,0006.51,0005.99
2023-07-08 08:10:00,SystemResetWarning,0833.8,5.01,000.00,030.7,027.1,000.0,038.3,031.2,33.5,-002.0,0010.40,0006.48,0005.97
2023-07-08 08:11:00,SystemResetWarning,0833.8,4.98,000.00,030.8,027.4,000.0,038.4,031.2,33.2,-001.3,0010.31,0006.45,0005.94
2023-07-08 08:12:00,SystemResetWarning,0833.8,5.01,000.00,030.8,027.6,000.0,038.5,031.3,33.0,-001.3,0010.32,0006.42,0005.91
2023-07-08 08:13:00,SystemResetWarning,0833.9,5.01,000.00,030.8,027.8,000.0,038.6,031.3,32.9,-001.5,0010.28,0006.41,0005.87
2023-07-08 08:14:00,SystemResetWarning,0833.8,4.99,000.00,030.9,027.9,000.0,038.7,031.3,32.9,-001.5,0009.66,0006.35,0005.84
2023-07-08 08:15:00,SystemResetWarning,0833.8,5.00,000.00,030.9,028.1,000.0,038.7,031.4,32.9,-000.9,0009.52,0006.31,0005.80
2023-07-08 08:16:00,SystemResetWarning,0833.8,5.02,000.00,030.9,028.2,000.0,038.8,031.4,33.0,-000.9,0009.68,0006.33,0005.79
2023-07-08 08:17:00,SystemResetWarning,0833.8,5.00,000.00,030.9,028.3,000.0,038.9,031.4,33.0,-000.9,0009.93,0006.33,0005.75
2023-07-08 08:18:00,SystemResetWarning,0833.8,4.99,000.00,030.9,028.4,000.0,038.9,031.5,33.0,-000.9,0010.12,0006.29,0005.72
2023-07-08 08:19:00,SystemResetWarning,0833.8,4.99,000.00,030.9,028.5,000.0,038.9,031.5,33.0,-000.7,0010.13,0006.26,0005.70
2023-07-08 08:20:00,SystemResetWarning,0833.8,5.00,000.00,030.9,028.5,000.0,039.0,031.5,33.1,-000.7,0010.22,0006.26,0005.68
2023-07-08 08:21:00,SystemResetWarning,0833.7,5.00,000.00,030.9,028.6,000.0,039.0,031.6,33.0,-000.2,0010.39,0006.31,0005.69
2023-07-08 08:22:00,SystemResetWarning,0833.7,5.00,000.00,030.9,028.6,000.0,039.0,031.6,33.0,0000.0,0010.47,0006.34,0005.70
2023-07-08 08:23:00,SystemResetWarning,0833.7,5.01,000.00,030.9,028.6,000.0,039.1,031.6,33.0,-000.5,0010.59,0006.37,0005.71
2023-07-08 08:24:00,SystemResetWarning,0833.7,5.00,000.00,030.9,028.7,000.0,039.1,031.7,33.0,-000.2,0011.08,0006.42,0005.74
2023-07-08 08:25:00,SystemResetWarning,0833.8,5.00,000.00,030.9,028.7,000.0,039.1,031.7,32.9,-000.1,0011.05,0006.47,0005.76
2023-07-08 08:26:00,SystemResetWarning,0833.8,5.00,000.00,030.9,028.7,000.0,039.1,031.7,32.9,0000.1,0011.10,0006.50,0005.79
2023-07-08 08:27:00,SystemResetWarning,0833.8,5.00,000.00,030.9,028.8,000.0,039.1,031.7,32.9,0000.2,0010.97,0006.47,0005.80
2023-07-08 08:28:00,SystemResetWarning,0833.8,5.00,000.00,030.9,028.8,000.0,039.2,031.7,33.0,0000.3,0010.94,0006.49,0005.81
2023-07-08 08:29:00,SystemResetWarning,0833.7,4.99,000.00,030.9,028.8,000.0,039.2,031.8,32.9,0000.3,0010.95,0006.53,0005.83
2023-07-08 08:30:00,SystemResetWarning,0833.7,5.00,000.00,030.9,028.8,000.0,039.2,031.8,32.8,-000.3,0011.12,0006.56,0005.85
2023-07-08 08:31:00,SystemResetWarning,0833.8,5.01,000.00,030.9,028.9,000.0,039.2,031.8,32.7,-000.2,0011.43,0006.59,0005.87
2023-07-08 08:32:00,SystemResetWarning,0833.8,5.00,000.00,030.9,028.9,000.0,039.2,031.8,32.7,-000.1,0011.57,0006.57,0005.87
2023-07-08 08:33:00,SystemResetWarning,0833.8,4.99,000.00,030.9,028.3,000.0,039.2,031.8,32.6,-000.6,0011.77,0006.57,0005.86
2023-07-08 08:34:00,SystemResetWarning,0833.8,4.99,000.00,030.9,026.4,000.0,039.0,031.7,32.5,0000.0,0011.80,0006.60,0005.88
2023-07-08 08:35:00,SystemResetWarning,0833.7,5.01,000.00,030.8,025.5,000.0,038.9,031.4,32.6,0000.6,0011.36,0006.58,0005.89
2023-07-08 08:36:00,SystemResetWarning,0833.7,5.01,000.00,030.6,025.5,000.0,038.9,031.0,32.9,0000.9,0011.28,0006.59,0005.91
2023-07-08 08:37:00,SystemResetWarning,0833.7,5.00,000.00,030.4,025.8,000.0,038.9,031.0,32.9,0001.1,0011.25,0006.59,0005.91
2023-07-08 08:38:00,SystemResetWarning,0833.7,5.00,000.00,030.4,026.3,000.0,038.9,031.1,32.7,0000.7,0011.26,0006.61,0005.92
2023-07-08 08:39:00,SystemResetWarning,0833.7,5.01,000.00,030.3,026.6,000.0,038.9,031.1,32.5,0000.4,0011.11,0006.59,0005.94
2023-07-08 08:40:00,SystemResetWarning,0833.7,4.99,000.00,030.3,027.0,000.0,038.9,031.2,32.3,0000.3,0010.91,0006.61,0005.97
2023-07-08 08:41:00,SystemResetWarning,0833.7,5.00,000.00,030.3,027.3,000.0,038.9,031.2,32.2,0000.5,0010.83,0006.64,0006.00
2023-07-08 08:42:00,SystemResetWarning,0833.8,5.00,000.00,030.2,027.5,000.0,038.8,031.2,32.0,0000.6,0010.38,0006.63,0006.02
2023-07-08 08:43:00,SystemResetWarning,0833.8,5.00,000.00,030.2,027.7,000.0,038.8,031.3,31.8,0000.3,0010.26,0006.65,0006.05
2023-07-08 08:44:00,SystemResetWarning,0833.8,5.00,000.00,030.2,027.9,000.0,038.8,031.3,31.8,0000.3,0010.52,0006.68,0006.08
2023-07-08 08:45:00,SystemResetWarning,0833.8,4.99,000.00,030.2,028.0,000.0,038.8,031.3,31.9,-000.2,0010.49,0006.70,0006.11
2023-07-08 08:46:00,SystemResetWarning,0833.8,5.00,000.00,030.2,028.2,000.0,038.8,031.4,31.8,-000.9,0010.56,0006.74,0006.15
2023-07-08 08:47:00,SystemResetWarning,0833.8,5.00,000.00,030.2,028.3,000.0,038.8,031.4,31.6,-001.3,0010.63,0006.79,0006.18
2023-07-08 08:48:00,SystemResetWarning,0833.8,5.00,000.00,030.2,028.3,000.0,038.8,031.4,31.6,-001.6,0010.86,0006.84,0006.21
2023-07-08 08:49:00,SystemResetWarning,0833.8,5.00,000.00,030.2,028.4,000.0,038.8,031.4,31.5,-001.5,0010.98,0006.86,0006.25
2023-07-08 08:50:00,SystemResetWarning,0833.8,4.99,000.00,030.2,028.5,000.0,038.8,031.5,31.5,-001.2,0011.68,0006.90,0006.27
2023-07-08 08:51:00,SystemResetWarning,0833.7,4.99,000.00,030.2,028.5,000.0,038.8,031.5,31.4,-001.2,0011.70,0006.86,0006.28
2023-07-08 08:52:00,SystemResetWarning,0833.8,5.00,000.00,030.3,028.6,000.0,038.8,031.5,31.4,-001.2,0011.66,0006.88,0006.30
2023-07-08 08:53:00,SystemResetWarning,0833.9,4.99,000.00,030.3,028.6,000.0,038.8,031.5,31.3,-001.2,0011.72,0006.91,0006.32
2023-07-08 08:54:00,SystemResetWarning,0833.9,5.00,000.00,030.3,028.6,000.0,038.8,031.5,31.2,-001.2,0011.60,0006.89,0006.32
2023-07-08 08:55:00,SystemResetWarning,0833.9,5.02,000.00,030.3,028.7,000.0,038.8,031.5,31.2,-000.9,0011.11,0006.89,0006.31
2023-07-08 08:56:00,SystemResetWarning,0833.9,5.00,000.00,030.3,028.7,000.0,038.8,031.6,31.3,-000.8,0011.07,0006.87,0006.31
2023-07-08 08:57:00,SystemResetWarning,0833.9,5.00,000.00,030.3,028.7,000.0,038.8,031.6,31.2,-000.8,0011.02,0006.86,0006.30
2023-07-08 08:58:00,SystemResetWarning,0833.9,5.00,000.00,030.3,028.7,000.0,038.8,031.6,31.3,-000.8,0010.93,0006.83,0006.30
2023-07-08 08:59:00,SystemResetWarning,0833.9,4.99,000.00,030.3,028.8,000.0,038.8,031.6,31.2,-000.8,0010.77,0006.83,0006.30
